International Falls, MN

8:03 AM CDT on September 19, 2017 (GMT -0500)
Falls International

Weather History for KINL - August, 2014

Change the Weather History Date:

Monday, August 4, 2014

  Actual Average Record
Temperature  
Mean Temperature 59 °F 65 °F  
Max Temperature 76 °F 78 °F 93 °F (1914)
Min Temperature 41 °F 52 °F 38 °F (1907)
Degree Days  
Heating Degree Days 6 2  
Month to date heating degree days 17 8  
Since 1 June heating degree days 249 242  
Since 1 July heating degree days 120 78  
Cooling Degree Days 0 2  
Month to date cooling degree days 0 8  
Year to date cooling degree days 95 131  
Since 1 June cooling degree days 72 122  
Growing Degree Days 8 (Base 50)    
Moisture  
Dew Point 50 °F    
Average Humidity 69    
Maximum Humidity 100    
Minimum Humidity 38    
Precipitation  
Precipitation 0.00 in 0.09 in 1.00 in (1907)
Month to date precipitation 0.01 0.35  
Year to date precipitation 23.65 14.50  
Snow  
Snow 0.00 in 0.00 in 0.00 in (2002)
Month to date snowfall 0.0 0.0  
Since 1 June snowfall 0.0 0.0  
Since 1 July snowfall 0.0 0.0  
Snow Depth 0.00 in    
Sea Level Pressure  
Sea Level Pressure 30.15 in    
Wind  
Wind Speed 2 mph (NNE)    
Max Wind Speed 13 mph    
Max Gust Speed 16 mph    
Visibility 10 miles    
Events      
T = Trace of Precipitation, MM = Missing Value Source: NWS Daily Summary

Daily Weather History Graph

Daily Weather History Graph

Search for Another Location

Airport or City:

Trip Planner

Search our weather history database for the weather conditions in past years. The results will help you decide how hot, cold, wet, or windy it might be!

Date:

Astronomy

Aug. 04, 2014 Rise Set
Actual Time 5:51 AM CDT 8:46 PM CDT
Civil Twilight 5:15 AM CDT 9:22 PM CDT
Nautical Twilight 4:28 AM CDT 10:09 PM CDT
Astronomical Twilight 3:31 AM CDT 11:05 PM CDT
Moon 2:57 PM CDT (8/4) 12:03 AM CDT (8/4)
Length of Visible Light 16h 07m
Length of Day
14h 54m
First Quarter, 57% of the Moon is Illuminated
Aug 4
First Quarter
Aug 10
Full
Aug 17
Last Quarter
Aug 25
New
Sep 2
First Quarter

Hourly Weather History & Observations

Time (CDT) Temp. Dew Point Humidity Pressure Visibility Wind Dir Wind Speed Gust Speed Precip Events Conditions
12:55 AM 46.0 °F 45.0 °F 96% 30.16 in 10.0 mi Calm Calm - N/A   Clear
1:55 AM 46.0 °F 44.1 °F 93% 30.16 in 10.0 mi Calm Calm - N/A   Clear
2:55 AM 45.0 °F 44.1 °F 97% 30.17 in 9.0 mi Calm Calm - N/A   Clear
3:55 AM 44.1 °F 44.1 °F 100% 30.17 in 10.0 mi Calm Calm - N/A   Clear
4:55 AM 44.1 °F 43.0 °F 96% 30.17 in 9.0 mi Calm Calm - N/A   Clear
5:55 AM 43.0 °F 42.1 °F 97% 30.17 in 7.0 mi Calm Calm - N/A   Clear
6:55 AM 48.9 °F 48.0 °F 97% 30.17 in 10.0 mi Calm Calm - N/A   Clear
7:55 AM 60.1 °F 55.9 °F 86% 30.17 in 10.0 mi North 4.6 mph - N/A   Clear
8:55 AM 66.0 °F 55.9 °F 70% 30.17 in 10.0 mi North 4.6 mph - N/A   Clear
9:55 AM 69.1 °F 55.0 °F 61% 30.18 in 10.0 mi NW 4.6 mph - N/A   Clear
10:55 AM 71.1 °F 53.1 °F 53% 30.17 in 10.0 mi Calm Calm - N/A   Clear
11:55 AM 73.0 °F 51.1 °F 46% 30.17 in 10.0 mi NNE 6.9 mph - N/A   Partly Cloudy
12:55 PM 73.0 °F 51.1 °F 46% 30.17 in 10.0 mi Variable 5.8 mph - N/A   Clear
1:55 PM 73.9 °F 51.1 °F 45% 30.16 in 10.0 mi NE 3.5 mph - N/A   Clear
2:55 PM 75.0 °F 50.0 °F 41% 30.15 in 10.0 mi Calm Calm - N/A   Clear
3:55 PM 75.0 °F 48.9 °F 40% 30.14 in 10.0 mi NE 10.4 mph - N/A   Partly Cloudy
4:55 PM 75.0 °F 51.1 °F 43% 30.13 in 10.0 mi NNE 5.8 mph - N/A   Clear
5:55 PM 73.9 °F 52.0 °F 46% 30.12 in 10.0 mi NNE 5.8 mph - N/A   Partly Cloudy
6:55 PM 72.0 °F 52.0 °F 49% 30.12 in 10.0 mi NNE 4.6 mph - N/A   Scattered Clouds
7:55 PM 66.9 °F 55.0 °F 66% 30.12 in 10.0 mi Calm Calm - N/A   Clear
8:55 PM 57.9 °F 55.0 °F 90% 30.13 in 10.0 mi Calm Calm - N/A   Clear
9:55 PM 54.0 °F 52.0 °F 93% 30.14 in 10.0 mi Calm Calm - N/A   Clear
10:55 PM 51.1 °F 51.1 °F 100% 30.13 in 10.0 mi Calm Calm - N/A   Clear
11:55 PM 50.0 °F 48.0 °F 93% 30.13 in 10.0 mi Calm Calm - N/A   Clear